Back to catalog

STARLINK-3446

AliveCommunicationsVLEO
NORAD 51747·PAYLOAD·🇺🇸 United States

Launched Feb 21, 2022 from Cape Canaveral Space Force Station

Loading…

Next Passes (next 24 hours)

TLE

FreshSource: CelesTrak SupGP

Epoch: Sep 14, 2026, 13:36 UTC

1 51747C 22016AK  26257.56715278  .00015644  00000+0  50316-3 0  2572
2 51747  53.1588 178.4460 0001344  90.3834 179.2391 15.31687310    13

Track STARLINK-3446 in real time with AllMySat

Download on the App Store